Weather in Sredniye Tatmyshi

Russia / Chuvash Republic     55°26′57″N   47°13′37″E
temp.,
°C
wind,
m/s
gust,
m/s
humid.,
%
clouds,
%
prec.,
mm/h
press.,
hPa
HPBL,
m
9 may, sun
sun900:00+10se5118982 0.0 1011188
03:00+10sse488697 0.0 1011113
06:00+12se4108382 0.0 1010259
09:00+17sse71263100 0.0 1010638
12:00+19sse81363100 0.0 10101142
15:00+18sse4971100 0.1 1010876
18:00+17se51275100 0.5 1010475
21:00+15sse5128372 0.8 1011245
10 may, mon
mon1000:00+12sw2289100 0.1 101321
03:00+12nnw1295100 0.5 101550
06:00+13nne3690100 0.7 1016176
09:00+17ene3474100 0.7 1018570
12:00+19nne4369100 0.0 1019830
15:00+20nne5668100 0.0 1020984
18:00+18nne587798 1.7 1022360
21:00+14nne6129299 3.4 1023355
11 may, tue
tue1100:00+11nne5119689 0.0 1024278
03:00+10nne5109897 0.0 1025246
06:00+12ne499397 0.0 1025245
09:00+17ene567498 0.0 1026505
12:00+21ene5659100 0.0 1026936
15:00+22e4552100 0.0 10261399
18:00+20ene3568100 0.0 102788
21:00+16ne3369100 0.0 102722
12 may, wed
wed1200:00+15ene3671100 0.0 102873
03:00+13e367493 0.0 102877
06:00+15e377995 0.0 1028187
09:00+20e466062 0.0 1028483
12:00+23se684792 0.0 10281880
15:00+23se574737 0.0 10272064
18:00+21ese356693 0.0 1027130
21:00+16ese357422 0.0 102764
13 may, thu
thu1300:00+15se337377 0.0 102733
03:00+14ese337479 0.0 102742
06:00+15ese387371 0.0 1027208
09:00+19se595570 0.0 1027578
12:00+22se684366 0.0 10261317
15:00+23se684614 0.0 10251349
18:00+20se376396 0.0 1025166
21:00+16se486537 0.0 1025121